* Astronomy

Members Login
Post Info TOPIC: Asteroid 2006 VC


L

Posts: 131433
Date:
Asteroid 2006 VC
Permalink  
 


Orbital elements:
2006 VC PHA, Earth MOID = 0.0206 AU
Epoch 2010 July 23.0 TT = JDT 2455400.5 MPC
M 113.06152 (2000.0) P Q
n 0.36432196 Peri. 19.16575 -0.28119305 -0.93592283
a 1.9415377 Node 87.61247 +0.85041811 -0.34542521
e 0.4917005 Incl. 12.25521 +0.44465662 +0.06877409
P 2.71 H 20.0 G 0.15 U 1

MPEC 2010 - O37


__________________
Page 1 of 1  sorted by
 
Quick Reply

Please log in to post quick replies.



Create your own FREE Forum
Report Abuse
Powered by ActiveBoard